Location: Corralito
(10.2667°N, 66.9500°W)
Time: 20:23:58
(UTC+00:00)

CZ-4B DEB - Visible Passes

Search period start: 22 June 2025 00:00
Search period end: 02 July 2025 00:00
Orbit: 833 x 856 km, 99.0° (Epoch: 22 June)

Date Brightness Start Highest point End Pass type
(mag) Time Alt. Az. Time Alt. Az. Time Alt. Az.
22 Jun 4.7 01:02:57 49° SW 01:03:46 54° WSW 01:09:03 10° NNW visible
23 Jun 4.2 00:49:08 59° S 00:50:10 78° WSW 00:55:35 10° NNW visible
24 Jun 4.1 00:35:19 53° SE 00:36:34 74° ENE 00:41:58 10° N visible
25 Jun 4.4 00:21:31 40° ESE 00:22:59 51° ENE 00:28:13 10° N visible
25 Jun 6.9 02:03:23 10° W 02:03:23 10° W 02:04:18 10° W visible
26 Jun 4.8 00:07:41 29° ESE 00:09:25 35° ENE 00:14:18 10° N visible
26 Jun 6.5 01:49:34 16° WSW 01:49:45 16° W 01:52:57 10° WNW visible
26 Jun 5.3 23:53:53 20° ESE 23:55:51 25° ENE 00:00:11 10° NNE visible
27 Jun 6.0 01:35:45 23° WSW 01:36:08 23° W 01:40:20 10° NW visible
27 Jun 5.7 23:40:04 14° ESE 23:42:18 17° ENE 23:45:45 10° NE visible
28 Jun 5.5 01:21:56 32° WSW 01:22:31 33° WSW 01:27:20 10° NW visible
28 Jun 6.0 23:26:56 10° E 23:28:46 12° ENE 23:30:36 10° NE visible
29 Jun 4.9 01:08:07 44° SW 01:08:54 47° WSW 01:14:05 10° NNW visible
30 Jun 4.3 00:54:19 56° SSW 00:55:18 69° WSW 01:00:41 10° NNW visible
01 Jul 4.0 00:40:30 56° SSE 00:41:41 83° ENE 00:47:06 10° N visible
